Tracking 26922 objects as of 30-Jan-2023
HD Live streaming from Space Station
objects crossing your sky now

COSMOS 1814

Track COSMOS 1814 now!
10-day predictions
COSMOS 1814 is classified as:


NORAD ID: 17303
Int'l Code: 1987-006A
Perigee: 764.6 km
Apogee: 798.7 km
Inclination: 74.1 °
Period: 100.3 minutes
Semi major axis: 7152 km
RCS: 2.1989 m2 (large)
Launch date: January 21, 1987
Source: Commonwealth of Independent States (former USSR) (CIS)
Launch site: PLESETSK MISSILE AND SPACE COMPLEX (PKMTR)
Your satellite tracking list
Your tracking list is empty




NASA's NSSDC Master Catalog

Two Line Element Set (TLE):
1 17303U 87006A   23029.34320046  .00000220  00000-0  85664-4 0  9990
2 17303  74.0574   0.3795 0023822  44.0929 316.2118 14.35177988885323
Source of the keplerian elements: AFSPC